DAH304 DAAG-OEMA

Flight info

Callsign DAH304
Flight time 4h 19m
Altitude 35000
Route BABOR1B BABOR UZ888 DIMAO DCT OMENI/N0448F370 DCT GODAK/N0442F290 L874 VANIX P868 ARLOS/N0449F370 UN4 SALUN N705 MMA DCT FYM M872 BOVET
Aircraft B738/M-SDE2E3FGHIRWXY/LB1

Departure

Time 2026-04-21 13:11
Airport Houari Boumediene Airport (DAAG)

Arrival

Time 2026-04-21 17:30
Airport Prince Mohammad Bin Abdulaziz Airport (OEMA)
Time Latitude Longitude Altitude Speed Heading
2026-04-21 13:11 36.64312 3.37579 12854 ft 371 kts 88°
2026-04-21 13:11 36.64436 3.40796 13527 ft 375 kts 88°
2026-04-21 13:11 36.64574 3.44413 14187 ft 379 kts 88°
2026-04-21 13:11 36.64700 3.47703 14785 ft 383 kts 88°
2026-04-21 13:12 36.64826 3.51025 15413 ft 386 kts 87°
2026-04-21 13:12 36.64953 3.54382 16000 ft 390 kts 87°
2026-04-21 13:12 36.65078 3.57768 16606 ft 393 kts 87°
2026-04-21 13:12 36.65214 3.61186 17208 ft 397 kts 86°
2026-04-21 13:13 36.65375 3.64639 17791 ft 401 kts 86°
2026-04-21 13:13 36.65549 3.68124 18327 ft 405 kts 86°
2026-04-21 13:13 36.65723 3.71566 18849 ft 407 kts 86°
2026-04-21 13:13 36.65900 3.75110 19363 ft 410 kts 86°
2026-04-21 13:14 36.66075 3.78681 19884 ft 414 kts 86°
2026-04-21 13:14 36.66248 3.82258 20377 ft 417 kts 86°
2026-04-21 13:14 36.66420 3.85885 20874 ft 420 kts 86°
2026-04-21 13:14 36.66593 3.89533 21368 ft 423 kts 86°
2026-04-21 13:15 36.66764 3.93197 21854 ft 426 kts 86°
2026-04-21 13:15 36.66934 3.96854 22330 ft 429 kts 86°
2026-04-21 13:15 36.67106 4.00580 22802 ft 433 kts 86°
2026-04-21 13:15 36.67277 4.04329 23235 ft 436 kts 86°
2026-04-21 13:16 36.67449 4.08111 23651 ft 439 kts 86°
2026-04-21 13:16 36.67621 4.11919 24018 ft 441 kts 86°
2026-04-21 13:16 36.67792 4.15751 24398 ft 444 kts 86°
2026-04-21 13:16 36.67964 4.19601 24779 ft 447 kts 86°
2026-04-21 13:17 36.68135 4.23465 25137 ft 449 kts 86°
2026-04-21 13:17 36.68306 4.27371 25490 ft 452 kts 86°
2026-04-21 13:17 36.68474 4.31234 25837 ft 454 kts 86°
2026-04-21 13:17 36.68644 4.35168 26181 ft 457 kts 86°
2026-04-21 13:18 36.68815 4.39136 26515 ft 460 kts 86°
2026-04-21 13:18 36.68984 4.43127 26847 ft 462 kts 86°
2026-04-21 13:18 36.69153 4.47128 27188 ft 464 kts 86°
2026-04-21 13:18 36.69322 4.51152 27520 ft 467 kts 86°
2026-04-21 13:19 36.69490 4.55201 27842 ft 469 kts 86°
2026-04-21 13:19 36.69657 4.59267 28144 ft 471 kts 86°
2026-04-21 13:19 36.69825 4.63363 28442 ft 474 kts 86°
2026-04-21 13:19 36.69989 4.67419 28735 ft 476 kts 86°
2026-04-21 13:20 36.70101 4.70206 28939 ft 477 kts 86°
2026-04-21 13:20 36.70319 4.75686 29319 ft 480 kts 86°
2026-04-21 13:20 36.70485 4.79861 29593 ft 482 kts 86°
2026-04-21 13:20 36.70649 4.84037 29859 ft 484 kts 86°
2026-04-21 13:21 36.70771 4.88237 30099 ft 487 kts 92°
2026-04-21 13:21 36.70164 4.92378 30259 ft 489 kts 111°
2026-04-21 13:21 36.68609 4.96129 30530 ft 485 kts 128°
2026-04-21 13:21 36.66333 4.99175 30861 ft 479 kts 144°
2026-04-21 13:22 36.63541 5.01343 31171 ft 471 kts 160°
2026-04-21 13:22 36.60483 5.02507 31424 ft 463 kts 174°
2026-04-21 13:22 36.57308 5.02775 31671 ft 456 kts 188°
2026-04-21 13:22 36.54137 5.02727 31887 ft 462 kts 175°
2026-04-21 13:23 36.51051 5.03935 32103 ft 474 kts 154°
2026-04-21 13:23 36.48416 5.06442 32393 ft 481 kts 133°
2026-04-21 13:23 36.46582 5.09917 32643 ft 485 kts 114°
2026-04-21 13:23 36.45517 5.13895 32888 ft 487 kts 103°
2026-04-21 13:24 36.45066 5.18059 33112 ft 487 kts 90°
2026-04-21 13:24 36.45144 5.22267 33399 ft 487 kts 86°
2026-04-21 13:24 36.45325 5.26415 33622 ft 487 kts 85°
2026-04-21 13:24 36.45530 5.30618 33869 ft 488 kts 85°
2026-04-21 13:25 36.45721 5.34817 34105 ft 488 kts 86°
2026-04-21 13:25 36.45890 5.39021 34294 ft 488 kts 86°
2026-04-21 13:25 36.46040 5.43249 34472 ft 489 kts 86°
2026-04-21 13:25 36.46175 5.47463 34683 ft 488 kts 86°
2026-04-21 13:26 36.46303 5.51681 34909 ft 487 kts 86°
2026-04-21 13:26 36.46429 5.55880 34927 ft 488 kts 86°
2026-04-21 13:26 36.46678 5.64246 34943 ft 488 kts 86°
2026-04-21 13:27 36.46926 5.72656 34929 ft 488 kts 87°
2026-04-21 13:27 36.47170 5.81090 34937 ft 488 kts 87°
2026-04-21 13:28 36.47325 5.89530 34919 ft 489 kts 89°
2026-04-21 13:28 36.47179 5.97895 34928 ft 488 kts 91°
2026-04-21 13:29 36.46968 6.06316 34913 ft 488 kts 91°
2026-04-21 13:29 36.46781 6.14728 34925 ft 486 kts 91°
2026-04-21 13:30 36.46613 6.23134 34921 ft 486 kts 90°
2026-04-21 13:30 36.46449 6.31463 34937 ft 485 kts 91°
2026-04-21 13:31 36.46277 6.39825 34949 ft 485 kts 91°
2026-04-21 13:31 36.46098 6.48199 34966 ft 484 kts 91°
2026-04-21 13:32 36.45912 6.56566 34961 ft 484 kts 91°
2026-04-21 13:32 36.45721 6.64912 34973 ft 483 kts 91°
2026-04-21 13:33 36.45526 6.73181 34965 ft 482 kts 91°
2026-04-21 13:33 36.45324 6.81502 34953 ft 482 kts 91°
2026-04-21 13:34 36.45117 6.89812 34941 ft 481 kts 91°
2026-04-21 13:34 36.44906 6.98055 34930 ft 481 kts 91°
2026-04-21 13:35 36.44687 7.06352 34930 ft 480 kts 91°
2026-04-21 13:35 36.44463 7.14644 34934 ft 480 kts 91°
2026-04-21 13:36 36.44233 7.22931 34929 ft 481 kts 91°
2026-04-21 13:36 36.43997 7.31233 34921 ft 481 kts 92°
2026-04-21 13:37 36.43756 7.39535 34923 ft 482 kts 92°
2026-04-21 13:37 36.43510 7.47793 34921 ft 482 kts 92°
2026-04-21 13:38 36.43255 7.56128 34930 ft 483 kts 92°
2026-04-21 13:38 36.42996 7.64456 34931 ft 483 kts 92°
2026-04-21 13:39 36.42731 7.72758 34926 ft 484 kts 92°
2026-04-21 13:39 36.42459 7.81110 34925 ft 485 kts 92°
2026-04-21 13:40 36.42181 7.89477 34931 ft 485 kts 92°
2026-04-21 13:40 36.41896 7.97854 34930 ft 485 kts 92°
2026-04-21 13:41 36.41608 8.06168 34927 ft 485 kts 92°
2026-04-21 13:41 36.41312 8.14526 34926 ft 484 kts 92°
2026-04-21 13:42 36.41011 8.22869 34919 ft 484 kts 92°
2026-04-21 13:42 36.40705 8.31218 34922 ft 484 kts 92°
2026-04-21 13:43 36.40302 8.39485 34915 ft 483 kts 96°
2026-04-21 13:43 36.39472 8.47764 34911 ft 483 kts 98°
2026-04-21 13:44 36.38543 8.56003 34916 ft 482 kts 98°
2026-04-21 13:44 36.37640 8.64245 34911 ft 482 kts 98°
2026-04-21 13:45 36.36762 8.72499 34904 ft 482 kts 98°
2026-04-21 13:45 36.35898 8.80669 34915 ft 481 kts 98°
2026-04-21 13:46 36.35020 8.88917 34920 ft 482 kts 98°
2026-04-21 13:46 36.34135 8.97150 34909 ft 482 kts 98°
2026-04-21 13:47 36.33244 9.05389 34921 ft 482 kts 98°
2026-04-21 13:47 36.32352 9.13583 34906 ft 483 kts 98°
2026-04-21 13:48 36.31445 9.21848 34914 ft 483 kts 98°
2026-04-21 13:48 36.30535 9.30099 34907 ft 483 kts 98°
2026-04-21 13:49 36.29624 9.38303 34920 ft 483 kts 98°
2026-04-21 13:49 36.28702 9.46555 34915 ft 484 kts 98°
2026-04-21 13:50 36.27772 9.54818 34908 ft 484 kts 98°
2026-04-21 13:50 36.26997 9.61675 34915 ft 484 kts 98°
2026-04-21 13:51 36.26057 9.69932 34912 ft 484 kts 98°
2026-04-21 13:51 36.24957 9.79533 34903 ft 484 kts 98°
2026-04-21 13:52 36.24006 9.87779 34906 ft 484 kts 98°
2026-04-21 13:52 36.23211 9.94639 34904 ft 483 kts 98°
2026-04-21 13:53 36.22251 10.02870 34912 ft 483 kts 98°
2026-04-21 13:53 36.21128 10.12433 34914 ft 483 kts 98°
2026-04-21 13:54 36.20313 10.19329 34908 ft 482 kts 98°
2026-04-21 13:54 36.19346 10.27477 34923 ft 482 kts 99°
2026-04-21 13:55 36.18364 10.35692 34914 ft 482 kts 99°
2026-04-21 13:55 36.17380 10.43881 34909 ft 482 kts 99°
2026-04-21 13:56 36.16387 10.52091 34909 ft 482 kts 99°
2026-04-21 13:56 36.15391 10.60283 34909 ft 482 kts 99°
2026-04-21 13:57 36.14396 10.68416 34925 ft 482 kts 99°
2026-04-21 13:57 36.13387 10.76621 34921 ft 482 kts 99°
2026-04-21 13:58 36.12373 10.84810 34924 ft 482 kts 99°
2026-04-21 13:58 36.11358 10.92964 34924 ft 483 kts 99°
2026-04-21 13:59 36.10331 11.01170 34934 ft 483 kts 99°
2026-04-21 13:59 36.09298 11.09375 34931 ft 483 kts 99°
2026-04-21 14:00 36.08258 11.17593 34930 ft 484 kts 99°
2026-04-21 14:00 36.07214 11.25798 34931 ft 484 kts 99°
2026-04-21 14:01 36.06170 11.33954 34937 ft 484 kts 99°
2026-04-21 14:01 36.05112 11.42177 34935 ft 484 kts 99°
2026-04-21 14:02 36.04056 11.50401 34937 ft 484 kts 98°
2026-04-21 14:03 36.02972 11.62804 34935 ft 484 kts 95°
2026-04-21 14:03 36.02359 11.71026 34930 ft 484 kts 95°
2026-04-21 14:04 36.01705 11.79303 34946 ft 484 kts 95°
2026-04-21 14:04 36.01020 11.87588 34939 ft 484 kts 96°
2026-04-21 14:05 36.00328 11.95804 34936 ft 484 kts 96°
2026-04-21 14:05 35.99626 12.04071 34933 ft 484 kts 96°
2026-04-21 14:06 35.98919 12.12354 34929 ft 484 kts 96°
2026-04-21 14:06 35.98207 12.20623 34944 ft 484 kts 96°
2026-04-21 14:07 35.97495 12.28837 34939 ft 484 kts 96°
2026-04-21 14:07 35.96773 12.37096 34938 ft 484 kts 96°
2026-04-21 14:08 35.96044 12.45370 34937 ft 485 kts 96°
2026-04-21 14:08 35.95309 12.53637 34941 ft 485 kts 96°
2026-04-21 14:09 35.94569 12.61899 34944 ft 485 kts 96°
2026-04-21 14:09 35.93828 12.70114 34938 ft 485 kts 96°
2026-04-21 14:10 35.93076 12.78382 34938 ft 485 kts 96°
2026-04-21 14:10 35.92318 12.86651 34942 ft 485 kts 96°
2026-04-21 14:11 35.91553 12.94933 34940 ft 485 kts 96°
2026-04-21 14:11 35.90789 13.03146 34938 ft 486 kts 96°
2026-04-21 14:12 35.90014 13.11416 34937 ft 486 kts 96°
2026-04-21 14:12 35.89232 13.19695 34940 ft 486 kts 96°
2026-04-21 14:13 35.88448 13.27929 34939 ft 486 kts 96°
2026-04-21 14:13 35.87656 13.36191 34938 ft 486 kts 96°
2026-04-21 14:14 35.86856 13.44483 34942 ft 486 kts 96°
2026-04-21 14:14 35.86050 13.52761 34944 ft 487 kts 96°
2026-04-21 14:15 35.85244 13.60988 34942 ft 487 kts 96°
2026-04-21 14:15 35.84428 13.69261 34947 ft 487 kts 96°
2026-04-21 14:16 35.83606 13.77533 34945 ft 487 kts 96°
2026-04-21 14:16 35.82777 13.85814 34945 ft 487 kts 96°
2026-04-21 14:17 35.81942 13.94096 34947 ft 487 kts 96°
2026-04-21 14:17 35.81108 14.02309 34949 ft 487 kts 96°
2026-04-21 14:18 35.80262 14.10589 34950 ft 487 kts 96°
2026-04-21 14:18 35.79411 14.18857 34947 ft 487 kts 96°
2026-04-21 14:19 35.78554 14.27124 34947 ft 487 kts 96°
2026-04-21 14:19 35.77696 14.35350 34943 ft 487 kts 96°
2026-04-21 14:20 35.76828 14.43618 34943 ft 487 kts 97°
2026-04-21 14:20 35.75954 14.51881 34940 ft 487 kts 97°
2026-04-21 14:21 35.75074 14.60152 34950 ft 487 kts 97°
2026-04-21 14:21 35.74193 14.68368 34955 ft 487 kts 97°
2026-04-21 14:22 35.73301 14.76639 34956 ft 487 kts 97°
2026-04-21 14:22 35.72404 14.84898 34960 ft 488 kts 97°
2026-04-21 14:23 35.71500 14.93174 34963 ft 488 kts 97°
2026-04-21 14:23 35.70596 15.01392 34963 ft 488 kts 97°
2026-04-21 14:24 35.69682 15.09654 34956 ft 488 kts 97°
2026-04-21 14:24 35.68761 15.17916 34958 ft 488 kts 97°
2026-04-21 14:25 35.67835 15.26185 34960 ft 488 kts 97°
2026-04-21 14:25 35.66901 15.34457 34958 ft 488 kts 97°
2026-04-21 14:26 35.65971 15.42658 34964 ft 488 kts 97°
2026-04-21 14:26 35.65027 15.50921 34964 ft 488 kts 97°
2026-04-21 14:27 35.64079 15.59183 34966 ft 488 kts 97°
2026-04-21 14:27 35.63123 15.67452 34975 ft 488 kts 97°
2026-04-21 14:28 35.62164 15.75717 34970 ft 488 kts 97°
2026-04-21 14:28 35.61200 15.83974 34970 ft 488 kts 97°
2026-04-21 14:29 35.60238 15.92174 34970 ft 489 kts 97°
2026-04-21 14:29 35.59262 16.00441 34974 ft 489 kts 97°
2026-04-21 14:30 35.58281 16.08695 34972 ft 489 kts 97°
2026-04-21 14:30 35.57292 16.16973 34975 ft 489 kts 97°
2026-04-21 14:31 35.56306 16.25177 34978 ft 489 kts 97°
2026-04-21 14:31 35.55307 16.33438 34978 ft 489 kts 97°
2026-04-21 14:32 35.54302 16.41701 34985 ft 489 kts 97°
2026-04-21 14:32 35.53294 16.49941 34995 ft 494 kts 97°
2026-04-21 14:33 35.52263 16.58326 34986 ft 498 kts 97°
2026-04-21 14:33 35.51222 16.66733 34989 ft 500 kts 97°
2026-04-21 14:34 35.50170 16.75182 34985 ft 501 kts 98°
2026-04-21 14:34 35.49112 16.83625 34987 ft 500 kts 98°
2026-04-21 14:35 35.48057 16.92001 34993 ft 499 kts 98°
2026-04-21 14:35 35.46994 17.00393 34991 ft 498 kts 98°
2026-04-21 14:36 35.45928 17.08762 34994 ft 496 kts 98°
2026-04-21 14:36 35.44858 17.17110 34992 ft 495 kts 98°
2026-04-21 14:37 35.43786 17.25445 34997 ft 494 kts 98°
2026-04-21 14:37 35.42715 17.33690 34999 ft 493 kts 98°
2026-04-21 14:38 35.41623 17.41994 35002 ft 493 kts 98°
2026-04-21 14:38 35.40526 17.50285 34999 ft 493 kts 98°
2026-04-21 14:39 35.39425 17.58580 35006 ft 494 kts 98°
2026-04-21 14:39 35.38322 17.66844 35006 ft 495 kts 98°
2026-04-21 14:40 35.37204 17.75179 35006 ft 496 kts 98°
2026-04-21 14:40 35.36081 17.83507 35006 ft 496 kts 99°
2026-04-21 14:41 35.34949 17.91859 35008 ft 497 kts 99°
2026-04-21 14:41 35.33819 18.00153 35009 ft 498 kts 99°
2026-04-21 14:42 35.32672 18.08521 35012 ft 498 kts 99°
2026-04-21 14:42 35.31520 18.16886 35014 ft 498 kts 99°
2026-04-21 14:43 35.30361 18.25254 35013 ft 499 kts 99°
2026-04-21 14:43 35.29204 18.33565 35013 ft 498 kts 99°
2026-04-21 14:44 35.28036 18.41919 35017 ft 498 kts 99°
2026-04-21 14:44 35.26862 18.50271 35015 ft 498 kts 99°
2026-04-21 14:45 35.25687 18.58618 35016 ft 498 kts 99°
2026-04-21 14:45 35.24518 18.66906 35015 ft 497 kts 99°
2026-04-21 14:46 35.23340 18.75228 35021 ft 497 kts 99°
2026-04-21 14:46 35.22151 18.83578 35022 ft 497 kts 99°
2026-04-21 14:47 35.20960 18.91893 35021 ft 497 kts 99°
2026-04-21 14:47 35.19770 19.00161 35021 ft 497 kts 99°
2026-04-21 14:48 35.18566 19.08488 35024 ft 497 kts 100°
2026-04-21 14:48 35.17358 19.16800 35025 ft 497 kts 100°
2026-04-21 14:49 35.16141 19.25132 35025 ft 498 kts 100°
2026-04-21 14:49 35.14925 19.33409 35026 ft 498 kts 100°
2026-04-21 14:50 35.13904 19.40333 35024 ft 498 kts 100°
2026-04-21 14:50 35.12463 19.50056 35026 ft 498 kts 100°
2026-04-21 14:51 35.11221 19.58395 35028 ft 499 kts 100°
2026-04-21 14:51 35.09981 19.66674 35029 ft 499 kts 100°
2026-04-21 14:52 35.08727 19.75009 35031 ft 499 kts 100°
2026-04-21 14:52 35.07471 19.83322 35028 ft 499 kts 100°
2026-04-21 14:53 35.06205 19.91653 35028 ft 499 kts 100°
2026-04-21 14:53 35.04935 19.99976 35028 ft 499 kts 101°
2026-04-21 14:54 35.03667 20.08242 35032 ft 499 kts 101°
2026-04-21 14:54 35.02384 20.16571 35031 ft 499 kts 101°
2026-04-21 14:55 35.01097 20.24884 35036 ft 499 kts 101°
2026-04-21 14:55 34.99804 20.33197 35033 ft 499 kts 101°
2026-04-21 14:56 34.98505 20.41505 35033 ft 499 kts 101°
2026-04-21 14:56 34.97210 20.49755 35034 ft 499 kts 101°
2026-04-21 14:57 34.95899 20.58065 35038 ft 499 kts 101°
2026-04-21 14:57 34.94581 20.66382 35034 ft 499 kts 101°
2026-04-21 14:58 34.93269 20.74626 35032 ft 499 kts 101°
2026-04-21 14:58 34.91941 20.82925 35033 ft 499 kts 101°
2026-04-21 14:59 34.90607 20.91232 35034 ft 500 kts 101°
2026-04-21 14:59 34.89266 20.99538 35035 ft 500 kts 101°
2026-04-21 15:00 34.87920 21.07841 35035 ft 500 kts 101°
2026-04-21 15:00 34.86577 21.16091 35037 ft 500 kts 101°
2026-04-21 15:01 34.85220 21.24391 35035 ft 500 kts 101°
2026-04-21 15:01 34.83857 21.32692 35033 ft 500 kts 102°
2026-04-21 15:02 34.82517 21.41002 35034 ft 500 kts 100°
2026-04-21 15:02 34.81473 21.49332 35040 ft 500 kts 98°
2026-04-21 15:03 34.80523 21.57721 35033 ft 501 kts 98°
2026-04-21 15:03 34.79543 21.66106 35036 ft 501 kts 98°
2026-04-21 15:04 34.78536 21.74425 35039 ft 501 kts 98°
2026-04-21 15:04 34.77505 21.82808 35035 ft 501 kts 98°
2026-04-21 15:05 34.76469 21.91183 35033 ft 501 kts 98°
2026-04-21 15:05 34.74905 22.03760 35035 ft 501 kts 98°
2026-04-21 15:06 34.73863 22.12086 35035 ft 501 kts 98°
2026-04-21 15:06 34.72808 22.20470 35039 ft 501 kts 98°
2026-04-21 15:07 34.71749 22.28840 35034 ft 501 kts 99°
2026-04-21 15:07 34.70688 22.37169 35038 ft 501 kts 99°
2026-04-21 15:08 34.69617 22.45539 35039 ft 501 kts 99°
2026-04-21 15:08 34.68542 22.53886 35033 ft 501 kts 99°
2026-04-21 15:09 34.67459 22.62252 35035 ft 501 kts 99°
2026-04-21 15:09 34.66370 22.70624 35038 ft 501 kts 99°
2026-04-21 15:10 34.65277 22.78977 35037 ft 501 kts 99°
2026-04-21 15:10 34.64186 22.87272 35035 ft 501 kts 99°
2026-04-21 15:11 34.63081 22.95629 35036 ft 501 kts 99°
2026-04-21 15:11 34.61093 23.03707 35025 ft 499 kts 118°
2026-04-21 15:12 34.57897 23.11183 35031 ft 498 kts 120°
2026-04-21 15:12 34.54652 23.18605 35035 ft 499 kts 120°
2026-04-21 15:13 34.51460 23.26028 35036 ft 499 kts 119°
2026-04-21 15:13 34.48275 23.33505 35038 ft 500 kts 119°
2026-04-21 15:14 34.45087 23.40991 35039 ft 500 kts 119°
2026-04-21 15:14 34.41892 23.48472 35036 ft 500 kts 119°
2026-04-21 15:15 34.38709 23.55901 35036 ft 500 kts 119°
2026-04-21 15:15 34.35508 23.63357 35035 ft 500 kts 119°
2026-04-21 15:16 34.32295 23.70823 35033 ft 500 kts 119°
2026-04-21 15:16 34.29088 23.78259 35034 ft 499 kts 119°
2026-04-21 15:17 34.25872 23.85702 35038 ft 499 kts 119°
2026-04-21 15:17 34.22674 23.93085 35037 ft 499 kts 119°
2026-04-21 15:18 34.19447 24.00521 35035 ft 499 kts 120°
2026-04-21 15:18 34.16224 24.07929 35038 ft 499 kts 120°
2026-04-21 15:19 34.12995 24.15339 35034 ft 499 kts 120°
2026-04-21 15:19 34.09780 24.22699 35035 ft 499 kts 120°
2026-04-21 15:20 34.06540 24.30103 35037 ft 499 kts 120°
2026-04-21 15:20 34.03289 24.37516 35040 ft 499 kts 120°
2026-04-21 15:21 33.99789 24.44710 35029 ft 497 kts 130°
2026-04-21 15:21 33.95042 24.50578 35045 ft 490 kts 142°
2026-04-21 15:22 33.89908 24.55974 35031 ft 491 kts 143°
2026-04-21 15:22 33.84772 24.61390 35036 ft 491 kts 142°
2026-04-21 15:23 33.79656 24.66845 35035 ft 491 kts 142°
2026-04-21 15:23 33.74583 24.72278 35038 ft 492 kts 142°
2026-04-21 15:24 33.69475 24.77743 35038 ft 492 kts 142°
2026-04-21 15:24 33.64369 24.83195 35042 ft 492 kts 142°
2026-04-21 15:25 33.59252 24.88647 35043 ft 492 kts 142°
2026-04-21 15:25 33.54132 24.94092 35043 ft 492 kts 142°
2026-04-21 15:26 33.49047 24.99492 35043 ft 492 kts 142°
2026-04-21 15:26 33.43911 25.04935 35285 ft 494 kts 142°
2026-04-21 15:27 33.41341 25.07657 35594 ft 491 kts 142°
2026-04-21 15:27 33.38777 25.10372 35867 ft 490 kts 142°
2026-04-21 15:27 33.36220 25.13074 36048 ft 491 kts 142°
2026-04-21 15:27 33.33666 25.15771 36203 ft 492 kts 142°
2026-04-21 15:28 33.31128 25.18449 36424 ft 492 kts 142°
2026-04-21 15:28 33.28573 25.21143 36625 ft 491 kts 142°
2026-04-21 15:28 33.26012 25.23842 36832 ft 491 kts 142°
2026-04-21 15:28 33.23447 25.26542 37015 ft 491 kts 142°
2026-04-21 15:29 33.20895 25.29227 37209 ft 491 kts 142°
2026-04-21 15:29 33.18319 25.31934 37401 ft 490 kts 142°
2026-04-21 15:29 33.15770 25.34612 37591 ft 490 kts 143°
2026-04-21 15:29 33.13210 25.37297 37787 ft 490 kts 143°
2026-04-21 15:30 33.10640 25.39992 37956 ft 490 kts 143°
2026-04-21 15:30 33.08129 25.42623 38138 ft 489 kts 143°
2026-04-21 15:30 33.05576 25.45296 38326 ft 489 kts 143°
2026-04-21 15:30 33.03015 25.47974 38485 ft 489 kts 143°
2026-04-21 15:31 33.00458 25.50647 38676 ft 488 kts 143°
2026-04-21 15:31 32.97905 25.53313 38792 ft 488 kts 143°
2026-04-21 15:31 32.95349 25.55981 38917 ft 488 kts 143°
2026-04-21 15:31 32.92802 25.58636 39014 ft 487 kts 143°
2026-04-21 15:32 32.87719 25.63928 39044 ft 490 kts 143°
2026-04-21 15:32 32.82588 25.69262 39055 ft 490 kts 143°
2026-04-21 15:33 32.77455 25.74591 39053 ft 491 kts 143°
2026-04-21 15:33 32.72301 25.79933 39052 ft 491 kts 143°
2026-04-21 15:34 32.67175 25.85238 39052 ft 491 kts 143°
2026-04-21 15:34 32.62022 25.90561 39053 ft 491 kts 143°
2026-04-21 15:35 32.56867 25.95879 39050 ft 491 kts 143°
2026-04-21 15:35 32.51712 26.01189 39053 ft 490 kts 143°
2026-04-21 15:36 32.46560 26.06486 39051 ft 490 kts 144°
2026-04-21 15:36 32.41450 26.11733 39056 ft 489 kts 144°
2026-04-21 15:37 32.36309 26.17002 39052 ft 489 kts 144°
2026-04-21 15:37 32.31173 26.22259 39053 ft 488 kts 144°
2026-04-21 15:38 32.26034 26.27510 39055 ft 488 kts 144°
2026-04-21 15:38 32.20926 26.32721 39054 ft 488 kts 144°
2026-04-21 15:39 32.15784 26.37959 39057 ft 488 kts 144°
2026-04-21 15:39 32.10650 26.43181 39057 ft 488 kts 144°
2026-04-21 15:40 32.05499 26.48412 39055 ft 488 kts 144°
2026-04-21 15:40 32.00357 26.53626 39057 ft 488 kts 144°
2026-04-21 15:41 31.95235 26.58811 39057 ft 489 kts 144°
2026-04-21 15:41 31.90069 26.64034 39063 ft 489 kts 144°
2026-04-21 15:42 31.84903 26.69247 39061 ft 490 kts 145°
2026-04-21 15:42 31.79723 26.74468 39061 ft 491 kts 145°
2026-04-21 15:43 31.74528 26.79695 39059 ft 491 kts 145°
2026-04-21 15:43 31.69365 26.84883 39059 ft 492 kts 145°
2026-04-21 15:44 31.64169 26.90096 39061 ft 492 kts 145°
2026-04-21 15:44 31.58958 26.95317 39066 ft 492 kts 145°
2026-04-21 15:45 31.53746 27.00529 39070 ft 493 kts 145°
2026-04-21 15:45 31.48565 27.05704 39070 ft 493 kts 145°
2026-04-21 15:46 31.43344 27.10911 39073 ft 493 kts 146°
2026-04-21 15:46 31.38127 27.16108 39075 ft 493 kts 146°
2026-04-21 15:47 31.32927 27.21355 39071 ft 496 kts 141°
2026-04-21 15:47 31.28605 27.27662 39089 ft 505 kts 129°
2026-04-21 15:48 31.24703 27.34497 39078 ft 506 kts 128°
2026-04-21 15:48 31.20800 27.41335 39071 ft 506 kts 129°
2026-04-21 15:49 31.16842 27.48148 39073 ft 506 kts 129°
2026-04-21 15:49 31.12891 27.54883 39068 ft 507 kts 129°
2026-04-21 15:50 31.08902 27.61659 39070 ft 507 kts 129°
2026-04-21 15:50 31.04908 27.68440 39066 ft 507 kts 129°
2026-04-21 15:51 31.00907 27.75226 39069 ft 508 kts 129°
2026-04-21 15:51 30.96930 27.81958 39062 ft 508 kts 130°
2026-04-21 15:52 30.92915 27.88745 39060 ft 509 kts 130°
2026-04-21 15:52 30.88890 27.95536 39058 ft 509 kts 130°
2026-04-21 15:53 30.84865 28.02314 39058 ft 510 kts 130°
2026-04-21 15:53 30.80857 28.09053 39049 ft 510 kts 130°
2026-04-21 15:54 30.76813 28.15843 39059 ft 511 kts 130°
2026-04-21 15:54 30.72759 28.22634 39050 ft 511 kts 130°
2026-04-21 15:55 30.68704 28.29418 39047 ft 512 kts 130°
2026-04-21 15:55 30.64673 28.36150 39048 ft 512 kts 130°
2026-04-21 15:56 30.60592 28.42953 39044 ft 513 kts 130°
2026-04-21 15:56 30.56512 28.49743 39045 ft 513 kts 131°
2026-04-21 15:57 30.52447 28.56498 39046 ft 514 kts 131°
2026-04-21 15:57 30.48357 28.63282 39045 ft 514 kts 131°
2026-04-21 15:58 30.44258 28.70068 39043 ft 514 kts 131°
2026-04-21 15:58 30.40152 28.76855 39036 ft 515 kts 131°
2026-04-21 15:59 30.36058 28.83611 39041 ft 515 kts 131°
2026-04-21 15:59 30.31940 28.90395 39032 ft 516 kts 131°
2026-04-21 16:00 30.27809 28.97190 39025 ft 516 kts 131°
2026-04-21 16:00 30.23673 29.03980 39024 ft 516 kts 131°
2026-04-21 16:01 30.19533 29.10765 39024 ft 516 kts 131°
2026-04-21 16:01 30.15414 29.17507 39015 ft 516 kts 131°
2026-04-21 16:02 30.11272 29.24273 39015 ft 517 kts 132°
2026-04-21 16:02 30.07114 29.31054 39016 ft 517 kts 132°
2026-04-21 16:03 30.02963 29.37812 39010 ft 517 kts 132°
2026-04-21 16:03 29.98825 29.44538 39023 ft 518 kts 132°
2026-04-21 16:04 29.94638 29.51330 39030 ft 519 kts 132°
2026-04-21 16:04 29.90448 29.58118 39025 ft 521 kts 132°
2026-04-21 16:05 29.86238 29.64927 39025 ft 522 kts 132°
2026-04-21 16:05 29.82048 29.71694 39032 ft 522 kts 133°
2026-04-21 16:06 29.77826 29.78500 39031 ft 523 kts 133°
2026-04-21 16:06 29.73599 29.85303 39032 ft 523 kts 133°
2026-04-21 16:07 29.69387 29.92069 39033 ft 523 kts 133°
2026-04-21 16:07 29.65128 29.98901 39029 ft 523 kts 133°
2026-04-21 16:08 29.58795 30.09038 39032 ft 523 kts 133°
2026-04-21 16:09 29.54543 30.15830 39030 ft 523 kts 133°
2026-04-21 16:09 29.50293 30.22608 39030 ft 523 kts 133°
2026-04-21 16:10 29.46071 30.29332 39033 ft 523 kts 133°
2026-04-21 16:10 29.41815 30.36099 39027 ft 524 kts 133°
2026-04-21 16:11 29.37271 30.42538 39042 ft 514 kts 142°
2026-04-21 16:11 29.32288 30.48411 39032 ft 513 kts 143°
2026-04-21 16:12 29.28136 30.53244 39025 ft 514 kts 143°
2026-04-21 16:12 29.22327 30.60089 39027 ft 515 kts 143°
2026-04-21 16:13 29.17349 30.66001 39039 ft 516 kts 143°
2026-04-21 16:13 29.12363 30.71920 39032 ft 517 kts 143°
2026-04-21 16:14 29.07399 30.77799 39030 ft 517 kts 143°
2026-04-21 16:14 29.02391 30.83719 39032 ft 518 kts 143°
2026-04-21 16:15 28.97382 30.89630 39029 ft 518 kts 143°
2026-04-21 16:15 28.92361 30.95548 39032 ft 518 kts 143°
2026-04-21 16:16 28.87341 31.01455 39036 ft 518 kts 143°
2026-04-21 16:16 28.82356 31.07313 39026 ft 519 kts 143°
2026-04-21 16:17 28.77330 31.13210 39023 ft 519 kts 143°
2026-04-21 16:17 28.72287 31.19121 39025 ft 519 kts 143°
2026-04-21 16:18 28.67291 31.25063 39021 ft 521 kts 141°
2026-04-21 16:18 28.62464 31.31176 39038 ft 523 kts 140°
2026-04-21 16:19 28.57637 31.37348 39031 ft 523 kts 140°
2026-04-21 16:19 28.52769 31.43506 39034 ft 523 kts 141°
2026-04-21 16:20 28.47923 31.49590 39033 ft 523 kts 141°
2026-04-21 16:20 28.43030 31.55718 39032 ft 523 kts 141°
2026-04-21 16:21 28.38140 31.61836 39027 ft 524 kts 141°
2026-04-21 16:21 28.33225 31.67980 39022 ft 525 kts 141°
2026-04-21 16:22 28.29147 31.73071 39024 ft 525 kts 141°
2026-04-21 16:22 28.23437 31.80190 39023 ft 525 kts 141°
2026-04-21 16:23 28.18508 31.86324 39026 ft 526 kts 141°
2026-04-21 16:23 28.13570 31.92461 39017 ft 527 kts 141°
2026-04-21 16:24 28.08653 31.98565 39010 ft 528 kts 141°
2026-04-21 16:24 28.03745 32.04780 39006 ft 534 kts 136°
2026-04-21 16:24 28.01632 32.08266 39003 ft 545 kts 126°
2026-04-21 16:25 27.99792 32.12026 39014 ft 546 kts 124°
2026-04-21 16:25 27.96239 32.19644 39004 ft 548 kts 124°
2026-04-21 16:26 27.92664 32.27258 38999 ft 548 kts 125°
2026-04-21 16:26 27.89055 32.34774 38993 ft 548 kts 125°
2026-04-21 16:27 27.85390 32.42326 38995 ft 548 kts 126°
2026-04-21 16:27 27.81722 32.49873 38989 ft 548 kts 125°
2026-04-21 16:28 27.78056 32.57414 38988 ft 548 kts 126°
2026-04-21 16:28 27.74411 32.64904 38988 ft 547 kts 126°
2026-04-21 16:29 27.71363 32.71156 38977 ft 548 kts 126°
2026-04-21 16:29 27.67058 32.79969 38975 ft 548 kts 126°
2026-04-21 16:30 27.63395 32.87455 38972 ft 549 kts 126°
2026-04-21 16:30 27.59702 32.94989 38967 ft 549 kts 126°
2026-04-21 16:31 27.56002 33.02523 38949 ft 549 kts 125°
2026-04-21 16:31 27.52299 33.10054 38951 ft 549 kts 126°
2026-04-21 16:32 27.48598 33.17563 38944 ft 549 kts 126°
2026-04-21 16:32 27.44905 33.25043 38953 ft 549 kts 126°
2026-04-21 16:33 27.41193 33.32551 38946 ft 549 kts 126°
2026-04-21 16:33 27.37482 33.40046 38941 ft 549 kts 127°
2026-04-21 16:34 27.33777 33.47511 38935 ft 549 kts 127°
2026-04-21 16:34 27.30059 33.54997 38930 ft 550 kts 127°
2026-04-21 16:35 27.26325 33.62505 38918 ft 550 kts 127°
2026-04-21 16:35 27.22583 33.70016 38912 ft 550 kts 127°
2026-04-21 16:36 27.18865 33.77466 38908 ft 550 kts 127°
2026-04-21 16:36 27.15606 33.85317 38917 ft 559 kts 117°
2026-04-21 16:37 27.12795 33.93466 38901 ft 560 kts 117°
2026-04-21 16:37 27.10448 34.00237 38906 ft 560 kts 117°
2026-04-21 16:38 27.07085 34.09672 38911 ft 560 kts 118°
2026-04-21 16:38 27.04180 34.17756 38911 ft 560 kts 118°
2026-04-21 16:39 27.01271 34.25861 38902 ft 560 kts 118°
2026-04-21 16:39 26.98855 34.32592 38901 ft 560 kts 118°
2026-04-21 16:40 26.95940 34.40705 38901 ft 560 kts 118°
2026-04-21 16:40 26.93023 34.48808 38896 ft 560 kts 118°
2026-04-21 16:41 26.90125 34.56842 38896 ft 560 kts 118°
2026-04-21 16:41 26.87200 34.64928 38892 ft 560 kts 118°
2026-04-21 16:42 26.84272 34.73009 38892 ft 560 kts 118°
2026-04-21 16:42 26.81340 34.81085 38890 ft 560 kts 118°
2026-04-21 16:43 26.78635 34.88519 38891 ft 560 kts 118°
2026-04-21 16:43 26.75715 34.96527 38887 ft 560 kts 118°
2026-04-21 16:44 26.72776 35.04575 38889 ft 560 kts 118°
2026-04-21 16:44 26.69823 35.12640 38884 ft 560 kts 118°
2026-04-21 16:45 26.68760 35.15543 38886 ft 560 kts 118°
2026-04-21 16:45 26.66270 35.22326 38883 ft 560 kts 119°
2026-04-21 16:46 26.63307 35.30385 38886 ft 560 kts 119°
2026-04-21 16:46 26.60342 35.38431 38880 ft 560 kts 119°
2026-04-21 16:47 26.57377 35.46468 38879 ft 560 kts 119°
2026-04-21 16:47 26.54382 35.54457 38880 ft 560 kts 120°
2026-04-21 16:48 26.51313 35.62444 38879 ft 560 kts 120°
2026-04-21 16:48 26.48233 35.70438 38878 ft 560 kts 120°
2026-04-21 16:49 26.45160 35.78432 38875 ft 560 kts 120°
2026-04-21 16:49 26.42097 35.86401 38875 ft 561 kts 120°
2026-04-21 16:50 26.39036 35.94353 38873 ft 561 kts 120°
2026-04-21 16:50 26.35953 36.02338 38873 ft 561 kts 120°
2026-04-21 16:51 26.32884 36.10273 38881 ft 561 kts 120°
2026-04-21 16:51 26.29788 36.18261 38872 ft 561 kts 120°
2026-04-21 16:52 26.26690 36.26241 38903 ft 561 kts 119°
2026-04-21 16:52 26.23634 36.34106 38855 ft 548 kts 119°
2026-04-21 16:53 26.20608 36.41868 38850 ft 544 kts 119°
2026-04-21 16:53 26.17576 36.49566 38852 ft 541 kts 122°
2026-04-21 16:54 26.14100 36.56918 38862 ft 536 kts 126°
2026-04-21 16:54 26.10451 36.64087 38866 ft 537 kts 127°
2026-04-21 16:55 26.06792 36.71361 38879 ft 540 kts 126°
2026-04-21 16:55 26.03167 36.78689 38878 ft 543 kts 126°
2026-04-21 16:56 25.99559 36.86010 38885 ft 545 kts 126°
2026-04-21 16:56 25.95903 36.93406 38881 ft 547 kts 126°
2026-04-21 16:57 25.92225 37.00826 38877 ft 549 kts 126°
2026-04-21 16:57 25.88537 37.08251 38874 ft 550 kts 126°
2026-04-21 16:58 25.84866 37.15634 38870 ft 550 kts 126°
2026-04-21 16:58 25.81166 37.23063 38867 ft 549 kts 126°
2026-04-21 16:59 25.77468 37.30482 38868 ft 548 kts 126°
2026-04-21 16:59 25.73786 37.37875 38885 ft 547 kts 126°
2026-04-21 17:00 25.70137 37.45191 38891 ft 546 kts 126°
2026-04-21 17:00 25.67085 37.51302 38897 ft 545 kts 126°
2026-04-21 17:01 25.62793 37.59880 38904 ft 545 kts 126°
2026-04-21 17:01 25.59105 37.67234 38796 ft 547 kts 126°
2026-04-21 17:01 25.57246 37.70933 38529 ft 550 kts 126°
2026-04-21 17:02 25.55393 37.74624 38267 ft 546 kts 126°
2026-04-21 17:02 25.53582 37.78231 37992 ft 543 kts 126°
2026-04-21 17:02 25.51753 37.81872 37719 ft 540 kts 126°
2026-04-21 17:02 25.49930 37.85497 37456 ft 538 kts 126°
2026-04-21 17:03 25.48112 37.89104 37207 ft 536 kts 126°
2026-04-21 17:03 25.46299 37.92699 36938 ft 535 kts 126°
2026-04-21 17:03 25.44489 37.96284 36685 ft 534 kts 126°
2026-04-21 17:03 25.42673 37.99876 36430 ft 533 kts 126°
2026-04-21 17:04 25.40890 38.03401 36182 ft 533 kts 126°
2026-04-21 17:04 25.39082 38.06974 35939 ft 532 kts 126°
2026-04-21 17:04 25.37270 38.10552 35721 ft 533 kts 126°
2026-04-21 17:04 25.35455 38.14132 35488 ft 537 kts 125°
2026-04-21 17:05 25.33630 38.17731 35253 ft 536 kts 125°
2026-04-21 17:05 25.31818 38.21306 34998 ft 530 kts 125°
2026-04-21 17:05 25.30024 38.24846 34759 ft 526 kts 125°
2026-04-21 17:05 25.28239 38.28360 34530 ft 524 kts 125°
2026-04-21 17:06 25.26448 38.31880 34303 ft 525 kts 125°
2026-04-21 17:06 25.24656 38.35396 34087 ft 526 kts 125°
2026-04-21 17:06 25.22891 38.38859 33535 ft 524 kts 125°
2026-04-21 17:06 25.21114 38.42346 32960 ft 521 kts 125°
2026-04-21 17:07 25.19348 38.45816 32484 ft 516 kts 125°
2026-04-21 17:07 25.17585 38.49270 31977 ft 512 kts 125°
2026-04-21 17:07 25.15843 38.52681 31507 ft 508 kts 125°
2026-04-21 17:07 25.14113 38.56066 31023 ft 505 kts 125°
2026-04-21 17:08 25.12398 38.59421 30556 ft 501 kts 126°
2026-04-21 17:08 25.10708 38.62726 30056 ft 499 kts 127°
2026-04-21 17:08 25.09011 38.66043 29515 ft 496 kts 127°
2026-04-21 17:08 25.07316 38.69353 28994 ft 492 kts 126°
2026-04-21 17:09 25.03976 38.75874 27969 ft 485 kts 126°
2026-04-21 17:09 25.02377 38.78992 27493 ft 479 kts 126°
2026-04-21 17:09 25.00743 38.82171 27041 ft 475 kts 126°
2026-04-21 17:10 24.99121 38.85323 26540 ft 471 kts 126°
2026-04-21 17:10 24.97532 38.88413 26077 ft 467 kts 126°
2026-04-21 17:10 24.95991 38.91552 25577 ft 467 kts 119°
2026-04-21 17:10 24.94893 38.94925 25144 ft 467 kts 111°
2026-04-21 17:11 24.93994 38.98351 24656 ft 465 kts 110°
2026-04-21 17:11 24.93150 39.01766 24189 ft 461 kts 109°
2026-04-21 17:11 24.92301 39.05170 23694 ft 458 kts 110°
2026-04-21 17:11 24.91447 39.08490 23189 ft 445 kts 110°
2026-04-21 17:12 24.90596 39.11707 22680 ft 433 kts 111°
2026-04-21 17:12 24.89748 39.14849 22204 ft 421 kts 111°
2026-04-21 17:12 24.88918 39.17890 21845 ft 417 kts 111°
2026-04-21 17:12 24.88094 39.20899 21700 ft 406 kts 111°
2026-04-21 17:13 24.87290 39.23840 21521 ft 397 kts 112°
2026-04-21 17:13 24.86503 39.26719 21365 ft 388 kts 112°
2026-04-21 17:13 24.85733 39.29538 21202 ft 380 kts 112°
2026-04-21 17:13 24.84981 39.32290 21039 ft 371 kts 112°
2026-04-21 17:14 24.84246 39.34977 20864 ft 364 kts 112°
2026-04-21 17:14 24.83525 39.37610 20553 ft 362 kts 112°
2026-04-21 17:14 24.82801 39.40255 20251 ft 361 kts 112°
2026-04-21 17:14 24.82078 39.42895 19888 ft 362 kts 112°
2026-04-21 17:15 24.81346 39.45564 19426 ft 366 kts 112°
2026-04-21 17:15 24.80604 39.48270 18969 ft 370 kts 112°
2026-04-21 17:15 24.79858 39.50986 18526 ft 373 kts 112°
2026-04-21 17:15 24.79106 39.53730 18054 ft 375 kts 111°
2026-04-21 17:16 24.78352 39.56483 17557 ft 375 kts 112°
2026-04-21 17:16 24.77610 39.59191 17028 ft 370 kts 112°
2026-04-21 17:16 24.76870 39.61891 16523 ft 365 kts 111°
2026-04-21 17:16 24.76150 39.64511 16038 ft 359 kts 111°
2026-04-21 17:17 24.75430 39.67132 15572 ft 356 kts 111°
2026-04-21 17:17 24.74715 39.69727 15073 ft 352 kts 111°
2026-04-21 17:17 24.74007 39.72294 14609 ft 348 kts 111°
2026-04-21 17:17 24.73294 39.74822 14135 ft 343 kts 115°
2026-04-21 17:18 24.72095 39.76999 13654 ft 328 kts 139°
2026-04-21 17:18 24.70325 39.78487 13219 ft 315 kts 158°
2026-04-21 17:18 24.68307 39.79293 12861 ft 304 kts 173°
2026-04-21 17:18 24.66289 39.79739 12479 ft 296 kts 176°
2026-04-21 17:19 24.64285 39.80128 12176 ft 286 kts 176°
2026-04-21 17:19 24.62390 39.80506 12086 ft 270 kts 176°
2026-04-21 17:19 24.60572 39.80880 11844 ft 263 kts 176°
2026-04-21 17:19 24.58764 39.81255 11416 ft 269 kts 175°
2026-04-21 17:20 24.56898 39.81647 10979 ft 271 kts 175°
2026-04-21 17:20 24.55054 39.82037 10559 ft 269 kts 174°
2026-04-21 17:20 24.53204 39.82428 10198 ft 272 kts 174°
2026-04-21 17:20 24.51369 39.82818 9896 ft 266 kts 174°
2026-04-21 17:21 24.49561 39.83204 9568 ft 264 kts 174°
2026-04-21 17:21 24.47772 39.83581 9170 ft 268 kts 174°
2026-04-21 17:21 24.45949 39.83967 8772 ft 265 kts 174°
2026-04-21 17:21 24.44146 39.84350 8411 ft 261 kts 174°
2026-04-21 17:22 24.42365 39.84727 7953 ft 260 kts 174°
2026-04-21 17:22 24.40597 39.85101 7530 ft 258 kts 174°
2026-04-21 17:22 24.38855 39.85470 7082 ft 252 kts 174°
2026-04-21 17:22 24.37145 39.85833 6611 ft 248 kts 174°
2026-04-21 17:23 24.35497 39.85923 6177 ft 234 kts 200°
2026-04-21 17:23 24.34187 39.85054 6101 ft 211 kts 224°
2026-04-21 17:23 24.33242 39.83885 6044 ft 202 kts 236°
2026-04-21 17:23 24.32438 39.82620 6044 ft 203 kts 236°
2026-04-21 17:24 24.31629 39.81331 6029 ft 207 kts 236°
2026-04-21 17:24 24.30829 39.80027 6027 ft 205 kts 243°
2026-04-21 17:24 24.30649 39.78517 6027 ft 206 kts 283°
2026-04-21 17:24 24.31489 39.77268 6026 ft 208 kts 322°
2026-04-21 17:25 24.32722 39.76536 6020 ft 202 kts 329°
2026-04-21 17:25 24.33991 39.75889 5876 ft 203 kts 333°
2026-04-21 17:25 24.35316 39.75365 5624 ft 202 kts 336°
2026-04-21 17:25 24.36658 39.74896 5380 ft 201 kts 340°
2026-04-21 17:26 24.38008 39.74536 5126 ft 198 kts 343°
2026-04-21 17:26 24.39338 39.74238 4876 ft 191 kts 345°
2026-04-21 17:26 24.40608 39.73966 4652 ft 184 kts 345°
2026-04-21 17:26 24.41886 39.73692 4407 ft 189 kts 345°
2026-04-21 17:27 24.43160 39.73420 4164 ft 185 kts 345°
2026-04-21 17:27 24.44397 39.73156 3953 ft 174 kts 346°
2026-04-21 17:27 24.45537 39.72913 3724 ft 162 kts 346°
2026-04-21 17:27 24.46607 39.72686 3514 ft 153 kts 344°
2026-04-21 17:28 24.47636 39.72465 3330 ft 150 kts 345°
2026-04-21 17:28 24.48665 39.72243 3153 ft 153 kts 346°
2026-04-21 17:28 24.49724 39.72016 2959 ft 154 kts 347°
2026-04-21 17:28 24.50786 39.71785 2621 ft 155 kts 348°
2026-04-21 17:29 24.51828 39.71568 2471 ft 153 kts 348°
2026-04-21 17:29 24.52873 39.71350 2358 ft 152 kts 348°
2026-04-21 17:29 24.53905 39.71137 2152 ft 153 kts 348°
2026-04-21 17:29 24.54870 39.70920 2113 ft 129 kts 350°
2026-04-21 17:30 24.55634 39.70759 2109 ft 94 kts 349°
2026-04-21 17:30 24.56109 39.70659 2114 ft 50 kts 349°
2026-04-21 17:30 24.56419 39.70601 2112 ft 35 kts 359°
2026-04-21 17:30 24.56603 39.70641 2111 ft 22 kts 16°
2026-04-21 17:31 24.56661 39.70673 2109 ft 0 kts 57°
2026-04-21 17:31 24.56661 39.70674 2109 ft 0 kts 57°
2026-04-21 17:31 24.56666 39.70685 2108 ft 3 kts 69°
2026-04-21 17:32 24.56669 39.70697 2107 ft 0 kts 77°
2026-04-21 17:32 24.56667 39.70703 2107 ft 2 kts 105°
2026-04-21 17:32 24.56653 39.70725 2106 ft 5 kts 135°
2026-04-21 17:33 24.56617 39.70743 2106 ft 6 kts 165°
2026-04-21 17:33 24.56576 39.70753 2108 ft 6 kts 168°
2026-04-21 17:33 24.56527 39.70762 2106 ft 9 kts 171°
2026-04-21 17:33 24.56458 39.70777 2107 ft 10 kts 149°
2026-04-21 17:34 24.56435 39.70849 2105 ft 11 kts 82°
2026-04-21 17:34 24.56450 39.70933 2104 ft 14 kts 79°
2026-04-21 17:34 24.56471 39.71053 2104 ft 17 kts 79°
2026-04-21 17:34 24.56491 39.71174 2105 ft 16 kts 79°
2026-04-21 17:35 24.56498 39.71291 2104 ft 15 kts 124°
2026-04-21 17:35 24.56401 39.71331 2104 ft 15 kts 168°
2026-04-21 17:35 24.56301 39.71351 2104 ft 15 kts 170°
2026-04-21 17:35 24.56193 39.71375 2104 ft 17 kts 168°
2026-04-21 17:36 24.56077 39.71400 2104 ft 17 kts 168°
2026-04-21 17:36 24.55994 39.71418 2104 ft 6 kts 169°
2026-04-21 17:36 24.55950 39.71428 2104 ft 6 kts 169°
2026-04-21 17:36 24.55916 39.71425 2104 ft 5 kts 218°
2026-04-21 17:37 24.55905 39.71392 2104 ft 5 kts 257°
2026-04-21 17:37 24.55900 39.71362 2105 ft 3 kts 259°
2026-04-21 17:37 24.55898 39.71351 2104 ft 0 kts 261°